Location: Ch�risy
(50.2331°N, 2.9131°E)
Time: 19:46:17
(UTC+00:00)

CREW DRAGON DEMO-1 DEB - Pass Details

Date: 17 January 2021
Orbit: 335 x 339 km, 51.6° (Epoch: 27 February)

Event Time Altitude Azimuth Distance (km) Brightness Sun altitude
Rises 17:45:32 0° 271° (W) 2,177 8.2 -13.7°
Reaches altitude 10° 17:47:35 10° 275° (W) 1,327 6.8 -14.0°
Maximum altitude 17:50:31 63° 357° (N) 397 2.8 -14.4°
Enters shadow 17:51:29 37° 65° (ENE) 572 3.2 -14.6°
